Regional Weather Roundup
Issued by NWS

Home | Current Version | Previous Version | Graphics & Text | Print | Product List | Glossary On
Versions: 1 2 3 4 5 6 7 8 9 10 11 12 13 14 15 16 17 18 19 20 21 22 23 24 25 26 27 28 29 30 31 32 33 34 35 36 37 38 39 40 41 42 43 44 45 46 47 48 49 50
000
ASUS43 KMKX 300700
RWRWI

WISCONSIN REGIONAL WEATHER ROUNDUP
NATIONAL WEATHER SERVICE MILWAUKEE/SULLIVAN WI
100 AM CST FRI JAN 30 2015

NOTE: "FAIR" INDICATES FEW OR NO CLOUDS BELOW 12,000 FEET WITH NO
SIGNIFICANT WEATHER AND/OR OBSTRUCTIONS TO VISIBILITY.

WIZ001-002-006>008-014>016-023>028-300800-
NORTHWEST WISCONSIN

CITY           SKY/WX    TMP DP  RH WIND       PRES   REMARKS
SUPERIOR ARPT  PTCLDY     6  -1  74 NW6       30.54R WCI  -5
ASHLAND        CLOUDY    14   5  67 N9        30.49S WCI   2
HAYWARD        MOCLDY     6   0  76 NW3       30.47R
SIREN          CLEAR      7   0  74 NW3       30.54R
CUMBERLAND     CLEAR      7   0  72 NW6       30.48R WCI  -3
RICE LAKE      CLEAR      8   1  75 CALM      30.50S
CHETEK         CLEAR      5   1  83 W3        30.49S
LADYSMITH      CLOUDY    11   4  74 NW8       30.46S WCI   0
EAU CLAIRE     NOT AVBL
MENOMONIE      PTCLDY    11   4  71 NW6       30.52S WCI   2
NEW RICHMOND   PTCLDY     9   4  79 NW5       30.53R WCI   1
OSCEOLA        CLEAR     11   4  74 NW5       30.57R WCI   3
$$

WIZ003>005-009-010-017-018-300800-
NORTH CENTRAL WISCONSIN

CITY           SKY/WX    TMP DP  RH WIND       PRES   REMARKS
MANITOWISH WTR CLOUDY    12   5  74 N9G16     30.37S WCI  -1
ARBOR VITAE    CLOUDY    14   7  74 N16G23    30.37R WCI  -2
WOODRUFF       CLOUDY    14   7  74 N16G23    30.37R WCI  -2
RHINELANDER    CLOUDY    13   3  64 NW9G18    30.36R WCI   1
EAGLE RIVER    CLOUDY    12   3  69 N14G21    30.35R WCI  -4
LAND O LAKES   CLOUDY    12   5  73 N14G22    30.35R WCI  -3
PHILLIPS       CLOUDY    13   4  69 NW7       30.39S WCI   2
TOMAHAWK       CLOUDY    14   5  67 N3G17     30.38R
MEDFORD        CLOUDY    14   6  70 NW9       30.39R WCI   2
MERRILL        CLOUDY    16   6  65 N8        30.39R WCI   5
$$

WIZ029-030-035-036-043>047-300800-
CENTRAL WISCONSIN

CITY           SKY/WX    TMP DP  RH WIND       PRES   REMARKS
WAUSAU         CLOUDY    17   4  56 N9        30.38R WCI   6
MOSINEE        MOCLDY    18   9  68 N10G17    30.40R WCI   6
MARSHFIELD     CLOUDY    16   5  62 NW14      30.41R WCI   2
STEVENS POINT  CLOUDY    17   5  60 NW10G17   30.40R WCI   4
WAUPACA        CLEAR     21   6  53 NW9       30.40R WCI  10
WAUTOMA        NOT AVBL
WISC RAPIDS    CLOUDY    19   8  62 N12       30.43R WCI   7
CAMP DOUGLAS   NOT AVBL
$$

WIZ011>013-019>022-031-037>040-048>050-300800-
NORTHEAST WISCONSIN

CITY           SKY/WX    TMP DP  RH WIND       PRES   REMARKS
ANTIGO         CLOUDY    14   5  67 NW10      30.35R WCI   1
SHAWANO        CLOUDY    22  10  59 NW7       30.39R WCI  13
OCONTO         CLOUDY    17   6  60 MISG      30.38S
STURGEON BAY   CLOUDY    16   7  67 N13       30.38R WCI   2
GREEN BAY      MOCLDY    20   9  62 N13       30.39R WCI   7
MANITOWOC      NOT AVBL
APPLETON       MOCLDY    19  12  73 NW9       30.37R WCI   9
CLINTONVILLE   CLOUDY    21  12  68 NW13      30.39R WCI   9
OSHKOSH        PTCLDY    20   8  60 NW10      30.38R WCI   9
$$

WIZ032>034-041-042-053>061-300800-
SOUTHWEST WISCONSIN

CITY           SKY/WX    TMP DP  RH WIND       PRES   REMARKS
LA CROSSE      PTCLDY    18   8  65 NW13      30.50R WCI   5
SPARTA         CLOUDY    18   8  64 NW12      30.48R WCI   6
VIROQUA        PTCLDY    17   8  68 NW12      30.43R WCI   4
BOSCOBEL       MOCLDY    23   8  52 N9        30.47R WCI  13
PRAIRIE DU CHI CLEAR     23  10  57 NW9       30.48R WCI  13
PLATTEVILLE    CLOUDY    24  13  65 NW13      30.41R WCI  12
$$

WIZ056-057-062-063-064-067-068-300800-
SOUTH CENTRAL WISCONSIN

CITY           SKY/WX    TMP DP  RH WIND       PRES   REMARKS
REEDSBURG      FAIR      19   8  62 NW12G21   30.42R WCI   7
BARABOO/DELLS  FAIR      20   8  61 NW8       30.41R WCI  10
LONE ROCK      NOT AVBL
MINERAL POINT  CLEAR     23  12  63 NW10G17   30.39R WCI  12
MADISON        CLOUDY    22  11  62 NW12      30.39R WCI  10
MIDDLETON      CLOUDY    26  12  57 NW14G20   30.40R WCI  14
WATERTOWN      CLOUDY    24  11  59 N9G21     30.36S WCI  14
MONROE         CLOUDY    27  18  69 NW12G17   30.37R WCI  16
JANESVILLE     CLOUDY    28  16  59 N9        30.37R WCI  20
$$

WIZ051-052-058>065-066-070>072-300800-
SOUTHEAST WISCONSIN

CITY           SKY/WX    TMP DP  RH WIND       PRES   REMARKS
MILWAUKEE      CLOUDY    25   7  46 N10       30.36R WCI  15
WAUKESHA       CLOUDY    23  10  58 N13       30.36R WCI  11
MILWAUKEE/TIMM CLOUDY    27   9  46 N12       30.36R WCI  16
RACINE         CLOUDY    25   8  48 N14G30    30.37R WCI  13
BURLINGTON     CLOUDY    24  10  56 N12       30.36R WCI  12
KENOSHA        CLOUDY    26   9  48 N13       30.35R WCI  15
FOND DU LAC    CLEAR     20   7  57 N9        30.38R WCI   9
SHEBOYGAN      CLOUDY    22  12  65 N8        30.36R WCI  12
WEST BEND      CLOUDY    23  12  63 NW12G18   30.35R WCI  12
JUNEAU         CLOUDY    22   9  56 N12G17    30.38R WCI  11
$$

LSZ147-162-300800-
LAKE SUPERIOR

STATION/POSITION TIME  TEMP    WIND        PRES    WAVE
                       AIR SEA DIR/SP/G            HT/PER
                 (UTC) (F)     (DEG/KT/KT) (MB)    (FT/S)
DEVILS ISLAND    0600   14     360/ 11/ 14 1034.1R
PORT WING        0600   15     340/  9/ 12 1032.8
SAXON HARBOR     0600   17     340/ 11/ 16 1032.2R
$$

LMZ867-665-643>646-300800-
LAKE MICHIGAN

STATION/POSITION TIME  TEMP    WIND        PRES    WAVE
                       AIR SEA DIR/SP/G            HT/PER
                 (UTC) (F)     (DEG/KT/KT) (MB)    (FT/S)
NORTHPORT PIER   0607   18     330/ 24     1027.8R
SISTER BAY       0613   16     350/ 26/ 32   N/A
KEWAUNEE LAKESHO 0600   18     350/  7/ 11 1027.1R
SHEBOYGAN LAKESH 0600   24     350/ 21/ 25 1028.6R
PORT WASHINGTON  0600   25      10/  8/ 17 1028.4R
MILWAUKEE LAKESH 0600   26     350/ 14/ 19   N/A
KENOSHA   LAKESH 0600   28     350/ 18/ 27 1026.8R
$$

TC  - TEMPERATURE IN CELSIUS
VSB - VISIBILITY IN STATUTE MILES
WCI - WIND CHILL INDEX
HX  - HEAT INDEX




USA.gov is the U.S. government's official web portal to all federal, state and local government web resources and services.